Regional Weather Roundup
Issued by NWS

Home | Current Version | Previous Version | Graphics & Text | Print | Product List | Glossary On
Versions: 1 2 3 4 5 6 7 8 9 10 11 12 13 14 15 16 17 18 19 20 21 22 23 24 25 26 27 28 29 30 31 32 33 34 35 36 37 38 39 40 41 42 43 44 45 46 47 48 49 50
000
ASUS45 KTFX 291210
RWRMT
MONTANA REGIONAL WEATHER ROUNDUP
NATIONAL WEATHER SERVICE GREAT FALLS MT
600 AM MDT SUN MAY 29 2016

NOTE: "FAIR" INDICATES FEW OR NO CLOUDS BELOW 12000 FEET WITH NO
SIGNIFICANT WEATHER AND/OR OBSTRUCTIONS TO VISIBILITY.

MTZ001>007-043-291300-
WEST OF THE DIVIDE

CITY           SKY/WX    TMP DP  RH WIND       PRES   REMARKS
KALISPELL      CLEAR     33  33 100 W3        30.04R
MISSOULA       CLEAR     35  33  92 CALM      30.09S
BUTTE          CLOUDY    32  29  88 S6        30.13R WCI  26
MULLAN PASS    CLOUDY    40  32  73 S6        30.06S
ANACONDA         N/A     34  30  86 SW3       30.11R
DEER LODGE       N/A     36  34  93 CALM      30.12S
EUREKA           N/A     45  36  70 CALM      30.02S
HAMILTON         N/A     43  34  70 S9        30.07S
LIBBY            N/A     37  36  93 CALM      30.04F
$$

MTZ008-052>055-291300-
SOUTHWEST MONTANA

CITY           SKY/WX    TMP DP  RH WIND       PRES   REMARKS
BOZEMAN        CLEAR     38  36  92 SE5       30.10R
DILLON         CLEAR     38  32  79 SE7       30.11R
W YELLOWSTONE  CLOUDY    27  27 100 CALM      30.20S
ENNIS          CLEAR     41  34  75 S12       30.16R
$$

MTZ009-010-012-014-046-048-049-054-291300-
EAST SLOPES AND CENTRAL MONTANA

CITY           SKY/WX    TMP DP  RH WIND       PRES   REMARKS
CUT BANK       MOCLDY    47  34  60 SW7       29.99S
GREAT FALLS    PTCLDY    46  35  65 S9        30.03R
MALMSTROM AFB  MOCLDY    45  36  71 SW6       30.03R
HELENA         CLOUDY    44  35  70 CALM      30.07R
CHOTEAU          N/A     50  32  50 CALM      30.02S
$$

MTZ011-013-016-021-045-047-050-051-291300-
NORTH CENTRAL MONTANA

CITY           SKY/WX    TMP DP  RH WIND       PRES   REMARKS
HAVRE          CLEAR     41  36  82 SW9       30.00R
LEWISTOWN      PTCLDY    38  31  76 SE6       30.05S
N BAR RANCH    FOG       36  32  87 CALM      30.08S VSB 1
CHINOOK          N/A     43  36  75 W3        30.00S
$$

MTZ017>020-022>027-061-062-291300-
NORTHEAST MONTANA

CITY           SKY/WX    TMP DP  RH WIND       PRES   REMARKS
GLASGOW        CLEAR     44  39  82 S5        30.00R
JORDAN           N/A     37  35  92 W6        30.03R
SIDNEY         CLEAR     44  40  85 S5        30.02R
WOLF POINT     CLEAR     38  36  92 SW3       30.02R
PLENTYWOOD       N/A     50  41  71 CALM      29.99R
POPLAR           N/A     43  39  87 CALM      30.02R
$$

MTZ028>42-056>058-291300-
SOUTHCENTRAL AND SOUTHEAST MONTANA

CITY           SKY/WX    TMP DP  RH WIND       PRES   REMARKS
BAKER          CLEAR     41  38  89 CALM      30.06R
BILLINGS       PTCLDY    45  42  89 W5        30.05S
LIVINGSTON     CLEAR     39  35  86 NW9       30.08S
MILES CITY     CLEAR     47  41  80 NW5       30.04R
FORSYTH          N/A     46  43  87 CALM      30.04R
$$

REGIONAL REPORTS...DAKOTAS

CITY           SKY/WX    TMP DP  RH WIND       PRES   REMARKS
WILLISTON      CLEAR     45  43  93 CALM      30.00R
MINOT          CLEAR     54  51  90 SW9       29.96R
DICKINSON      PTCLDY    47  43  86 W7        30.02R
BEACH            N/A     46  45  93 CALM      30.07S
CROSBY           N/A     50  50 100 SW12      29.99R
WATFORD CITY     N/A     45  45 100 CALM      30.02R
BISMARCK       CLEAR     50  50 100 SW3       30.01R
GRAND FORKS    CLOUDY    59  57  93 NW7       29.91R
FARGO          PTSUNNY   57  55  93 W6        29.91R FOG
BUFFALO SD       N/A     50  41  71 W5        30.00R
RAPID CITY     MOCLDY    51  45  79 NW6       30.08R
$$

REGIONAL REPORTS...WYOMING/IDAHO/WASHINGTON

CITY           SKY/WX    TMP DP  RH WIND       PRES   REMARKS
GILLETTE       CLEAR     48  45  89 S6        30.09R
SHERIDAN       MOCLDY    43  40  89 S3        30.07R
BUFFALO WY     CLEAR     51  40  65 SE3       30.11R
CODY           CLEAR     46  34  61 NE7       30.10R
YELLOWSTONE LA   N/A     27  23  85 CALM      30.26R
IDAHO FALLS    CLEAR     35  31  85 N3        30.13R
SALMON         CLEAR     36  30  80 CALM      30.11R
BOISE          PTCLDY    50  34  54 SE8       30.02S HAZE
SPOKANE        MOCLDY    49  40  71 CALM      29.98S
$$

REGIONAL REPORTS...ALBERTA

CITY           SKY/WX    TMP DP  RH WIND       PRES   REMARKS
EDMONTON       CLEAR     39  36  87 NE5       29.84F
CALGARY        MOCLDY    48  30  49 S7        29.87S
LETHBRIDGE     PTCLDY    46  34  61 SW14      29.92S
MEDICINE HAT   CLEAR     43  37  81 W5        29.93R
WATERTON GATE    N/A     48  30  49 SW8         N/A
CARDSTON         N/A     46  32  57 SW6         N/A
MILK RIVER       N/A     36  32  87 SE2         N/A
$$

REGIONAL REPORTS...SASKATCHEWAN

CITY           SKY/WX    TMP DP  RH WIND       PRES   REMARKS
SWIFT CURRENT  CLEAR     46  37  71 SW16G29   29.93R
REGINA         PTCLDY    43  43 100 SW6       29.93R
SASKATOON      MOCLDY    48  48 100 SW8       29.90R
CYPRESS HILLS    N/A     43  27  52 W3          N/A
VAL MARIE        N/A     36  34  93 NE2         N/A
ROCKGLEN         N/A     45  39  81 SW10        N/A
ASSINIBOIA       N/A     43  43 100 S2          N/A
$$



USA.gov is the U.S. government's official web portal to all federal, state and local government web resources and services.